Regional Weather Roundup
Issued by NWS Cleveland, OH

Home | Current Version | Previous Version | Graphics & Text | Print | Product List | Glossary On
Versions: 1 2 3 4 5 6 7 8 9 10 11 12 13 14 15 16 17 18 19 20 21 22 23 24 25 26 27 28 29 30 31 32 33 34 35 36 37 38 39 40 41 42 43 44 45 46 47 48 49 50
000
ASUS41 KCLE 281110
RWRCLE
OHIO REGIONAL WEATHER ROUNDUP
NATIONAL WEATHER SERVICE CLEVELAND, OH
600 AM EST SAT FEB 28 2015

NOTE: "FAIR" INDICATES FEW OR NO CLOUDS BELOW 12,000 FEET WITH NO
SIGNIFICANT WEATHER AND/OR OBSTRUCTIONS TO VISIBILITY.

OHZ001>008-015>018-024>027-034-035-043-044-281200-
   NORTHWEST OHIO

CITY           SKY/WX    TMP DP  RH WIND       PRES   REMARKS
DEFIANCE       PTCLDY    -5 -11  75 CALM      30.72R
FINDLAY        PTCLDY    -2  -8  76 CALM      30.71R
TOLEDO EXPRESS PTCLDY    -8 -12  83 CALM      30.72R
TOLEDO EXEC    FAIR       1  -7  68 SE3       30.73S
LIMA           MOCLDY     3  -6  66 SE3       30.68R
$$

OHZ009>014-019>023-028>033-038-089-281200-
   NORTHEAST OHIO

CITY           SKY/WX    TMP DP  RH WIND       PRES   REMARKS
CLE-HOPKINS    PTCLDY    -8 -13  78 CALM      30.76R
CLE-LAKEFRONT  CLEAR      4  -4  69 SE9       30.75R WCI -10
CUY CO. ARPT   NOT AVBL
LORAIN-ELYRIA  PTCLDY    -8 -13  78 S5        30.74R WCI -19
ASHTABULA      MOCLDY    -8 -13  78 S3        30.73R
AKRON-CANTON   MOCLDY    -1  -7  75 CALM      30.70R
WOOSTER        MOCLDY   -14 -20  74 CALM      30.70S
MANSFIELD      PTCLDY    -3  -8  79 SE3       30.67S
YOUNGSTOWN     CLOUDY    -4  -9  79 S5        30.71R WCI -15
$$

OHZ042-051>053-060>062-070>072-077>081-281200-
  SOUTHWEST OHIO

CITY           SKY/WX    TMP DP  RH WIND       PRES   REMARKS
CINC-COVINGTON CLOUDY    12   1  61 E9        30.66S WCI   0
CINC-LUNKEN    PTCLDY     9   0  67 NE5       30.72S WCI   1
HAMILTON       PTCLDY     3  -1  83 CALM      30.71S
DAYTON         PTCLDY     7  -3  64 E7        30.67S WCI  -5
WRIGHT-PAT AFB CLOUDY     2  -3  79 CALM      30.69S
DAYTON GENERAL PTCLDY     8  -3  61 E8        30.66S WCI  -4
WILMINGTON     MOCLDY     5  -5  63 E5        30.67R WCI  -4
$$

OHZ036-037-039>041-045>050-054>059-063>069-073>076-082>088-281200-
  CENTRAL AND SOUTHEAST OHIO

CITY           SKY/WX    TMP DP  RH WIND       PRES   REMARKS
COLUMBUS       MOCLDY     1  -7  68 CALM      30.71R
OSU AIRPORT    MOCLDY     1  -4  79 E3        30.70R
BOLTON FIELD   MOCLDY   N/A N/A N/A CALM      30.70R
RICKENBACK AFB MOCLDY     1  -5  76 NE5       30.71R WCI  -9
NEWARK         CLEAR     -9 -14  78 CALM      30.71R
MARION         PTCLDY    -9 -16  71 CALM      30.70R
LANCASTER      PTCLDY    -2  -7  79 CALM      30.71R
ZANESVILLE     CLEAR      0  -5  79 CALM      30.71S
NEW PHILLY     PTCLDY    -2  -9  72 CALM      30.74R
$$



USA.gov is the U.S. government's official web portal to all federal, state and local government web resources and services.